Location: Lecco
(45.8566°N, 9.3977°E)
Time: 01:55:58
(UTC+02:00)

Courier 1B Rocket - Pass Details

Date: 01 September 2019
Orbit: 920 x 1202 km, 28.2° (Epoch: 20 September)

Event Time Altitude Azimuth Distance (km) Brightness Sun altitude
Rises 01:49:47 0° 229° (SW) 3,634 - -35.3°
Reaches altitude 10° 01:53:27 10° 208° (SSW) 2,736 - -35.2°
Maximum altitude 01:57:20 16° 172° (S) 2,362 - -35.1°
Drops below altitude 10° 02:01:21 10° 136° (SE) 2,855 - -35.0°
Sets 02:05:18 0° 117° (ESE) 3,873 - -34.9°
